When you browse on this site, cookies collect data to enhance your experience and personalize the content and advertising you see.
Visit our Privacy Policy to learn more. By continuing to use the site, you agree to this use of cookies and data.
  • In Portugal
  • List of Countries
  • For 7 days
  • Water Temperature
  • Satellite Maps
  • Weather Map
  • Weather Widgets
  • user-avatar
    Login

    Hourly Weather Coleraine

    Today, 18 July, Thursday

    Time Temperature Precipitation Wind Pressure Humidity
    00:00 +11°C° 0 mm 3 mps 752 mmHg 94%
    01:00 +11°C° 0 mm 3 mps 752 mmHg 94%
    02:00 +11°C° 0 mm 3 mps 752 mmHg 95%
    03:00 +11°C° 0 mm 4 mps 752 mmHg 95%
    04:00 +11°C° 0 mm 4 mps 752 mmHg 94%
    05:00 +12°C° 0 mm 4 mps 752 mmHg 94%
    06:00 +12°C° 0 mm 4 mps 752 mmHg 94%
    07:00 +13°C° 0.1 mm 5 mps 752 mmHg 92%
    08:00 +14°C° 0.1 mm 5 mps 752 mmHg 89%
    09:00 +15°C° 0.1 mm 6 mps 752 mmHg 86%
    10:00 +15°C° 0.6 mm 6 mps 752 mmHg 86%
    11:00 +16°C° 0.6 mm 6 mps 752 mmHg 85%
    12:00 +16°C° 0.6 mm 6 mps 752 mmHg 85%
    13:00 +16°C° 0.7 mm 6 mps 752 mmHg 84%
    14:00 +17°C° 0.7 mm 6 mps 752 mmHg 83%
    15:00 +17°C° 0.7 mm 6 mps 752 mmHg 82%
    16:00 +16°C° 0.4 mm 6 mps 752 mmHg 84%
    17:00 +16°C° 0.4 mm 5 mps 752 mmHg 86%
    18:00 +15°C° 0.4 mm 5 mps 752 mmHg 88%
    19:00 +15°C° 0.2 mm 4 mps 752 mmHg 90%
    20:00 +14°C° 0.2 mm 4 mps 753 mmHg 92%
    21:00 +13°C° 0.2 mm 3 mps 753 mmHg 94%
    22:00 +12°C° 0 mm 3 mps 753 mmHg 94%
    23:00 +12°C° 0 mm 3 mps 753 mmHg 95%

    Tomorrow, 19 July, Friday

    Time Temperature Precipitation Wind Pressure Humidity
    00:00 +11°C° 0 mm 3 mps 753 mmHg 95%
    01:00 +11°C° 0 mm 3 mps 753 mmHg 95%
    02:00 +11°C° 0 mm 3 mps 753 mmHg 95%
    03:00 +11°C° 0 mm 3 mps 753 mmHg 95%
    04:00 +11°C° 0 mm 3 mps 752 mmHg 95%
    05:00 +11°C° 0 mm 3 mps 752 mmHg 94%
    06:00 +12°C° 0 mm 3 mps 752 mmHg 94%
    07:00 +13°C° 0 mm 3 mps 752 mmHg 91%
    08:00 +13°C° 0 mm 3 mps 751 mmHg 89%
    09:00 +14°C° 0 mm 3 mps 751 mmHg 86%
    10:00 +15°C° 0.3 mm 2 mps 751 mmHg 87%
    11:00 +15°C° 0.3 mm 2 mps 750 mmHg 89%
    12:00 +15°C° 0.3 mm 2 mps 750 mmHg 90%
    13:00 +15°C° 0.7 mm 2 mps 750 mmHg 92%
    14:00 +15°C° 0.7 mm 2 mps 749 mmHg 94%
    15:00 +15°C° 0.7 mm 1 mps 749 mmHg 95%
    16:00 +15°C° 0 mm 1 mps 749 mmHg 95%
    17:00 +15°C° 0 mm 1 mps 749 mmHg 94%
    18:00 +16°C° 0 mm 1 mps 748 mmHg 93%
    19:00 +15°C° 0 mm 1 mps 749 mmHg 94%
    20:00 +14°C° 0 mm 1 mps 749 mmHg 95%
    21:00 +14°C° 0 mm 1 mps 749 mmHg 97%
    22:00 +14°C° 0.3 mm 1 mps 749 mmHg 97%
    23:00 +14°C° 0.3 mm 1 mps 749 mmHg 97%

    Day after tomorrow, 20 July, Saturday

    Time Temperature Precipitation Wind Pressure Humidity
    00:00 +14°C° 0.3 mm 1 mps 749 mmHg 97%
    01:00 +14°C° 0.1 mm 1 mps 749 mmHg 97%
    02:00 +14°C° 0.1 mm 1 mps 749 mmHg 97%
    03:00 +14°C° 0.1 mm 2 mps 750 mmHg 97%
    04:00 +14°C° 0 mm 2 mps 750 mmHg 97%
    05:00 +14°C° 0 mm 2 mps 750 mmHg 96%
    06:00 +13°C° 0 mm 2 mps 750 mmHg 95%
    07:00 +13°C° 0 mm 3 mps 751 mmHg 91%
    08:00 +14°C° 0 mm 3 mps 751 mmHg 88%
    09:00 +16°C° 0 mm 3 mps 752 mmHg 84%
    10:00 +16°C° 0 mm 3 mps 752 mmHg 80%
    11:00 +17°C° 0 mm 3 mps 753 mmHg 76%
    12:00 +17°C° 0 mm 3 mps 753 mmHg 72%
    13:00 +17°C° 0 mm 4 mps 754 mmHg 71%
    14:00 +18°C° 0 mm 4 mps 754 mmHg 71%
    15:00 +18°C° 0 mm 4 mps 754 mmHg 70%
    16:00 +17°C° 0 mm 4 mps 755 mmHg 73%
    17:00 +17°C° 0 mm 3 mps 755 mmHg 76%
    18:00 +17°C° 0 mm 3 mps 755 mmHg 79%
    19:00 +16°C° 0 mm 3 mps 756 mmHg 82%
    20:00 +15°C° 0 mm 2 mps 757 mmHg 84%
    21:00 +14°C° 0 mm 2 mps 757 mmHg 87%
    22:00 +13°C° 0 mm 2 mps 757 mmHg 87%
    23:00 +13°C° 0 mm 2 mps 758 mmHg 88%

    21 July, Sunday

    Time Temperature Precipitation Wind Pressure Humidity
    00:00 +11°C° 0 mm 3 mps 758 mmHg 89%
    01:00 +11°C° 0 mm 3 mps 758 mmHg 89%
    02:00 +11°C° 0 mm 3 mps 758 mmHg 89%
    03:00 +11°C° 0 mm 3 mps 758 mmHg 89%
    04:00 +11°C° 0 mm 3 mps 758 mmHg 88%
    05:00 +12°C° 0 mm 4 mps 758 mmHg 88%
    06:00 +12°C° 0 mm 4 mps 758 mmHg 87%
    07:00 +12°C° 0.2 mm 5 mps 758 mmHg 89%
    08:00 +13°C° 0.2 mm 5 mps 758 mmHg 91%
    09:00 +13°C° 0.2 mm 5 mps 758 mmHg 93%
    10:00 +14°C° 0.3 mm 6 mps 758 mmHg 92%
    11:00 +14°C° 0.3 mm 6 mps 758 mmHg 92%
    12:00 +15°C° 0.3 mm 7 mps 758 mmHg 91%
    13:00 +16°C° 0.1 mm 7 mps 758 mmHg 89%
    14:00 +17°C° 0.1 mm 7 mps 758 mmHg 87%
    15:00 +19°C° 0.1 mm 6 mps 758 mmHg 85%
    16:00 +19°C° 0.8 mm 6 mps 758 mmHg 88%
    17:00 +17°C° 0.8 mm 5 mps 757 mmHg 91%
    18:00 +17°C° 0.8 mm 4 mps 757 mmHg 95%
    19:00 +16°C° 0.2 mm 5 mps 757 mmHg 95%
    20:00 +17°C° 0.2 mm 5 mps 757 mmHg 94%
    21:00 +17°C° 0.2 mm 6 mps 757 mmHg 94%
    22:00 +16°C° 1 mm 6 mps 756 mmHg 95%
    23:00 +16°C° 1 mm 6 mps 756 mmHg 95%

    22 July, Monday

    Time Temperature Precipitation Wind Pressure Humidity
    00:00 +16°C° 1 mm 7 mps 755 mmHg 95%
    01:00 +16°C° 0.3 mm 7 mps 755 mmHg 95%
    02:00 +17°C° 0.3 mm 7 mps 755 mmHg 94%
    03:00 +17°C° 0.3 mm 7 mps 755 mmHg 93%
    04:00 +17°C° 0 mm 7 mps 755 mmHg 93%
    05:00 +17°C° 0 mm 7 mps 755 mmHg 92%
    06:00 +17°C° 0 mm 7 mps 755 mmHg 91%
    07:00 +18°C° 0 mm 8 mps 756 mmHg 88%
    08:00 +20°C° 0 mm 8 mps 756 mmHg 85%
    09:00 +20°C° 0 mm 8 mps 757 mmHg 82%
    10:00 +21°C° 0 mm 8 mps 757 mmHg 79%
    11:00 +22°C° 0 mm 8 mps 757 mmHg 76%
    12:00 +23°C° 0 mm 8 mps 757 mmHg 72%
    13:00 +24°C° 0 mm 8 mps 758 mmHg 72%
    14:00 +24°C° 0 mm 8 mps 758 mmHg 71%
    15:00 +24°C° 0 mm 7 mps 758 mmHg 71%
    16:00 +24°C° 0 mm 7 mps 758 mmHg 74%
    17:00 +23°C° 0 mm 7 mps 758 mmHg 76%
    18:00 +23°C° 0 mm 7 mps 758 mmHg 79%
    19:00 +21°C° 0 mm 7 mps 758 mmHg 82%
    20:00 +20°C° 0 mm 6 mps 758 mmHg 84%
    21:00 +19°C° 0 mm 6 mps 758 mmHg 86%
    22:00 +19°C° 0 mm 6 mps 758 mmHg 87%
    23:00 +17°C° 0 mm 5 mps 758 mmHg 88%

    23 July, Tuesday

    Time Temperature Precipitation Wind Pressure Humidity
    00:00 +17°C° 0 mm 5 mps 758 mmHg 90%
    01:00 +16°C° 0 mm 5 mps 758 mmHg 91%
    02:00 +16°C° 0 mm 5 mps 758 mmHg 91%
    03:00 +16°C° 0 mm 5 mps 758 mmHg 92%
    04:00 +16°C° 0 mm 5 mps 758 mmHg 92%
    05:00 +16°C° 0 mm 5 mps 758 mmHg 91%
    06:00 +16°C° 0 mm 5 mps 758 mmHg 90%
    07:00 +17°C° 0 mm 5 mps 758 mmHg 86%
    08:00 +19°C° 0 mm 5 mps 758 mmHg 83%
    09:00 +20°C° 0 mm 5 mps 758 mmHg 79%
    10:00 +21°C° 0 mm 5 mps 757 mmHg 76%
    11:00 +22°C° 0 mm 6 mps 757 mmHg 74%
    12:00 +22°C° 0 mm 6 mps 757 mmHg 72%
    13:00 +23°C° 0 mm 6 mps 757 mmHg 72%
    14:00 +23°C° 0 mm 6 mps 756 mmHg 72%
    15:00 +23°C° 0 mm 6 mps 756 mmHg 71%
    16:00 +23°C° 0 mm 5 mps 756 mmHg 74%
    17:00 +23°C° 0 mm 5 mps 756 mmHg 77%
    18:00 +22°C° 0 mm 4 mps 755 mmHg 79%
    19:00 +21°C° 0 mm 3 mps 755 mmHg 83%
    20:00 +20°C° 0 mm 2 mps 755 mmHg 87%
    21:00 +19°C° 0 mm 2 mps 755 mmHg 91%
    22:00 +19°C° 0 mm 1 mps 755 mmHg 92%
    23:00 +19°C° 0 mm 1 mps 755 mmHg 92%
    Show more